Moab, UT

7:24 AM MST on November 21, 2017 (GMT -0700)
Canyonlands

Weather History for KCNY - September, 2013

Change the Weather History Date:

Wednesday, September 18, 2013

  Actual Average Record
Temperature  
Mean Temperature 76 °F 66 °F  
Max Temperature 88 °F 81 °F 100 °F (1956)
Min Temperature 63 °F 51 °F 37 °F (2006)
Degree Days  
Heating Degree Days 0 2  
Month to date heating degree days 1 15  
Since 1 July heating degree days 1 16  
Cooling Degree Days 11 3  
Month to date cooling degree days 162 96  
Year to date cooling degree days 1629 1262  
Growing Degree Days 26 (Base 50)    
Moisture  
Dew Point 41 °F    
Average Humidity 37    
Maximum Humidity 63    
Minimum Humidity 11    
Precipitation  
Precipitation 0.00 in 0.03 in 0.71 in (1961)
Month to date precipitation 0.77 0.55  
Year to date precipitation 4.67 5.93  
Sea Level Pressure  
Sea Level Pressure 29.66 in    
Wind  
Wind Speed 10 mph (WSW)    
Max Wind Speed 23 mph    
Max Gust Speed 30 mph    
Visibility 10 miles    
Events      
T = Trace of Precipitation, MM = Missing Value Source: NWS Daily Summary

Daily Weather History Graph

Daily Weather History Graph

Search for Another Location

Airport or City:

Trip Planner

Search our weather history database for the weather conditions in past years. The results will help you decide how hot, cold, wet, or windy it might be!

Date:

Astronomy

Sep. 18, 2013 Rise Set
Actual Time 7:03 AM MDT 7:21 PM MDT
Civil Twilight 6:36 AM MDT 7:48 PM MDT
Nautical Twilight 6:05 AM MDT 8:19 PM MDT
Astronomical Twilight 5:33 AM MDT 8:51 PM MDT
Moon 6:47 PM MDT (9/18) 6:09 AM MDT (9/18)
Length of Visible Light 13h 11m
Length of Day
12h 18m
Waxing Gibbous, 99% of the Moon is Illuminated
Sep 18
Waxing Gibbous
Sep 19
Full
Sep 26
Last Quarter
Oct 4
New
Oct 11
First Quarter

Hourly Weather History & Observations

Time (MDT) Temp. Dew Point Humidity Pressure Visibility Wind Dir Wind Speed Gust Speed Precip Events Conditions
12:30 AM 69.8 °F 53.6 °F 56% 29.81 in 10.0 mi South 5.8 mph - N/A   Clear
12:53 AM 70.0 °F 52.0 °F 53% 29.65 in 10.0 mi NNE 3.5 mph - N/A   Clear
1:53 AM 68.0 °F 51.1 °F 55% 29.65 in 10.0 mi ENE 3.5 mph - N/A   Clear
2:53 AM 70.0 °F 51.1 °F 51% 29.64 in 10.0 mi Calm Calm - N/A   Mostly Cloudy
3:53 AM 71.1 °F 51.1 °F 49% 29.63 in 10.0 mi Calm Calm - N/A   Clear
4:53 AM 66.9 °F 51.1 °F 57% 29.64 in 10.0 mi Calm Calm - N/A   Scattered Clouds
5:53 AM 64.9 °F 51.1 °F 61% 29.66 in 10.0 mi Calm Calm - N/A   Mostly Cloudy
6:53 AM 64.9 °F 50.0 °F 58% 29.67 in 10.0 mi Calm Calm - N/A   Clear
7:53 AM 69.1 °F 48.9 °F 49% 29.68 in 10.0 mi South 5.8 mph - N/A   Clear
8:53 AM 73.9 °F 48.9 °F 41% 29.68 in 10.0 mi SSE 12.7 mph - N/A   Unknown
9:53 AM 81.0 °F 42.1 °F 25% 29.67 in 10.0 mi SW 15.0 mph 28.8 mph N/A   Clear
10:53 AM 82.0 °F 39.9 °F 22% 29.68 in 10.0 mi SSW 18.4 mph - N/A   Scattered Clouds
11:53 AM 84.0 °F 39.9 °F 21% 29.67 in 10.0 mi South 15.0 mph 20.7 mph N/A   Mostly Cloudy
12:53 PM 84.9 °F 37.9 °F 19% 29.66 in 10.0 mi SW 12.7 mph 23.0 mph N/A   Mostly Cloudy
1:53 PM 86.0 °F 39.9 °F 20% 29.64 in 10.0 mi SW 16.1 mph 25.3 mph N/A   Scattered Clouds
2:53 PM 87.1 °F 39.0 °F 18% 29.60 in 10.0 mi WSW 13.8 mph 27.6 mph N/A   Partly Cloudy
3:53 PM 88.0 °F 37.0 °F 16% 29.59 in 9.0 mi WSW 23.0 mph 32.2 mph N/A   Mostly Cloudy
4:53 PM 87.1 °F 30.9 °F 13% 29.60 in 10.0 mi WSW 13.8 mph - N/A   Scattered Clouds
5:53 PM 86.0 °F 27.0 °F 12% 29.59 in 10.0 mi West 20.7 mph 28.8 mph N/A   Clear
6:53 PM 82.0 °F 27.0 °F 13% 29.60 in 10.0 mi WSW 12.7 mph - N/A   Clear
7:53 PM 75.9 °F 30.9 °F 19% 29.65 in 10.0 mi WNW 17.3 mph - N/A   Clear
8:53 PM 73.0 °F 32.0 °F 22% 29.68 in 10.0 mi WNW 10.4 mph - N/A   Clear
9:53 PM 71.1 °F 30.9 °F 23% 29.70 in 10.0 mi West 15.0 mph - N/A   Clear
10:53 PM 70.0 °F 30.9 °F 24% 29.72 in 10.0 mi WNW 12.7 mph - N/A   Clear
11:53 PM 66.0 °F 32.0 °F 28% 29.75 in 10.0 mi North 4.6 mph - N/A   Clear